Terminal Aerodrome Forecast
Issued by NWS

Home | Current Version | Previous Version | Text Only | Print | Product List | Glossary On
Versions: 1 2 3 4 5 6 7 8 9 10 11 12 13 14 15 16 17 18 19 20 21 22 23 24 25 26 27 28 29 30 31 32 33
000
FTUS43 KMKX 280235 AAA
TAFENW
TAF AMD
KENW 280235Z 2803/2824 VRB03KT P6SM SCT050
     FM281000 05004KT 5SM BR BKN090
     FM281400 05006KT P6SM OVC060
     FM282100 03010KT P6SM BKN130=

USA.gov is the U.S. government's official web portal to all federal, state and local government web resources and services.